Lid_Strength_Index
1 1 2 2 2 2 3 3 3 4 4 4 4 5 5 6 6 7 6 3 1 1 0 -0 -0 -1 -1 -0 0 0 -0 -1 -1 -2 -0 0 0 -0 -1 -1 -1 -1 -0
2 3 3 3 3 3 4 5 5 5 5 5 5 5 6 6 6 7 7 6 3 2 1 1 1 0 -0 -0 -1 -1 -0 0 0 -0 -1 -1 -0 0 1 -0 -1 -1 -0
4 4 4 4 4 4 3 4 4 5 7 6 6 6 6 6 7 7 7 8 8 5 3 4 4 3 2 1 0 -0 -0 -0 0 0 0 0 0 -0 -1 -0 -0 -1 -1
5 4 5 5 4 4 5 6 7 9 9 9 8 7 8 8 8 8 8 9 10 10 7 6 7 4 3 2 1 1 1 0 0 1 1 1 1 0 0 0 -0 -0 -0
6 7 8 8 8 8 8 9 10 10 11 10 8 8 9 9 9 10 11 11 12 12 11 9 9 7 6 5 3 2 2 2 2 2 2 1 1 1 1 1 1 1 -0
9 9 10 11 10 10 10 11 12 13 13 11 9 10 10 10 11 13 14 13 13 14 13 13 13 12 7 6 4 3 3 3 3 3 3 3 3 3 2 1 1 2 1
11 12 13 13 13 13 13 12 13 14 14 14 10 10 11 12 13 13 14 15 14 14 14 14 14 13 12 8 6 4 3 3 3 3 3 3 3 3 3 3 2 2 2
13 13 13 14 14 14 15 15 14 15 15 15 12 12 13 11 13 14 15 15 16 15 14 14 14 13 13 12 8 6 5 4 4 4 4 4 4 4 4 3 3 3 2
14 14 14 14 15 15 16 16 16 15 17 16 16 14 17 18 16 13 16 16 16 16 16 15 14 14 13 12 10 10 8 7 6 6 5 5 5 4 4 3 3 3 3
15 15 15 15 16 16 16 16 16 16 16 17 17 15 17 17 18 19 17 17 16 16 16 16 15 14 13 13 12 11 10 8 8 7 6 6 5 4 4 3 3 3 2
16 16 16 16 16 16 16 16 17 17 17 17 18 17 17 17 18 19 20 18 17 17 16 16 15 15 14 14 14 12 10 9 8 8 7 6 6 5 4 4 3 3 3
17 16 16 16 16 16 16 17 17 17 18 17 17 17 17 18 19 19 19 19 19 17 16 16 16 15 15 14 13 11 10 9 8 8 7 7 6 5 5 4 3 3 3
18 17 17 16 17 17 17 17 17 17 17 17 17 17 17 17 17 17 18 19 19 18 17 16 16 15 14 14 14 11 11 10 9 8 8 7 6 6 5 5 5 4 4
17 17 18 18 17 17 17 17 18 18 18 18 18 18 17 17 17 17 17 18 20 19 19 18 16 16 15 14 13 11 13 11 9 8 8 8 7 7 6 5 4 4 4
17 18 18 18 18 18 18 18 18 19 19 18 19 18 18 18 17 17 17 17 18 21 20 18 17 15 15 14 13 13 14 12 9 9 8 7 7 7 6 6 6 5 5
18 19 19 19 19 18 18 19 19 19 19 19 18 18 18 18 18 18 18 17 17 18 20 17 17 16 15 14 13 13 13 11 10 9 8 7 6 6 6 6 6 6 6
18 19 19 19 19 19 19 19 19 19 19 19 19 19 18 18 19 19 18 17 17 17 19 17 16 15 15 15 14 13 12 12 11 8 7 7 6 6 6 6 6 6 7
19 18 19 19 19 19 19 19 19 19 19 19 19 19 19 17 19 18 18 17 17 17 17 17 16 15 15 14 13 13 11 10 10 8 7 6 6 6 6 6 6 6 7
19 19 19 19 19 19 19 19 19 19 19 19 18 18 18 18 18 17 17 17 17 15 16 16 16 14 14 13 12 11 11 10 9 8 7 7 7 7 6 7 7 7 7
19 19 19 19 19 19 19 19 19 19 19 18 18 18 17 17 16 16 16 16 15 15 15 15 15 14 13 11 11 11 12 11 11 9 8 8 7 7 7 7 7 8 8
18 18 19 19 19 19 19 19 18 18 18 18 18 16 16 15 13 14 15 15 15 16 15 15 14 13 12 11 12 11 12 11 11 10 11 10 10 10 10 8 8 8 7
18 18 19 19 20 19 16 15 17 18 17 17 17 16 15 15 13 11 10 10 11 17 22 18 12 11 11 11 11 11 11 13 15 11 12 13 11 11 10 10 8 7 7
18 18 18 19 19 19 14 13 14 17 17 17 16 15 15 14 14 14 12 10 10 9 8 9 10 11 11 10 10 11 12 13 14 12 13 14 11 12 10 9 7 7 7
18 18 18 18 18 18 14 13 13 16 16 15 15 15 14 14 13 14 14 13 12 11 10 9 8 9 9 8 9 10 12 14 13 11 12 16 13 13 12 11 8 8 7
18 18 17 18 18 18 13 13 13 15 14 15 14 14 14 14 12 10 11 14 12 10 7 6 6 6 6 6 8 11 15 15 16 14 12 14 13 14 13 12 10 8 8
16 17 17 17 18 18 14 11 11 14 17 15 14 13 11 12 11 9 11 12 13 11 11 13 12 11 10 11 9 10 12 15 15 16 12 15 14 14 16 13 11 12 11